Voltar ao catálogo

STARLINK-36100

AtivoComunicaçõesVLEO
NORAD 66942·PAYLOAD·🇺🇸 United States

Lançado Dec 7, 2025 de Vandenberg Space Force Base

Loading…

Próximas Passagens (próximas 24 horas)

TLE

AtualizadoSource: CelesTrak SupGP

Época: Sep 15, 2026, 02:48 UTC

1 66942C 25286T   26258.11715278 -.00057633  00000+0 -17027-2 0  2587
2 66942  53.1584 195.0053 0001324  88.1225 119.7293 15.34420274    19

Acompanhe STARLINK-36100 em tempo real com AllMySat

Download on the App Store